Location: Bavegemberg
(50.9500°N, 3.8833°E)
Time: 02:44:15
(UTC+00:00)

Cosmos 2208 Rocket - Pass Details

Date: 23 May 2024
Orbit: 753 x 803 km, 74.0° (Epoch: 21 June)

Event Time Altitude Azimuth Distance (km) Brightness Sun altitude
Rises 02:54:38 0° 334° (NNW) 3,284 7.5 -6.8°
Reaches altitude 10° 02:57:02 10° 334° (NNW) 2,343 6.8 -6.5°
Maximum altitude 03:02:22 83° 248° (WSW) 784 4.0 -5.9°
Drops below altitude 10° 03:07:35 10° 161° (SSE) 2,294 6.2 -5.3°
Sets 03:09:55 0° 160° (SSE) 3,210 7.0 -5.0°
